| time (UTC) | temp C | wind direction | speed KPH | gust KPH | rain 1hr cm | rain 24hr cm | rain mn cm | humidity % | barometer mb |
| 20260505162204 | 22 | 134 | 4.8 | 9.7 | 0.00 | 0.00 | 0.00 | 81 | 1016.9 |
| 20260505161704 | 22 | 149 | 4.8 | 11.3 | 0.00 | 0.00 | 0.00 | 81 | 1016.9 |
| 20260505161205 | 22 | 288 | 3.2 | 14.5 | 0.00 | 0.00 | 0.00 | 80 | 1016.9 |
| 20260505160204 | 22 | 107 | 1.6 | 9.7 | 0.00 | 0.00 | 0.00 | 80 | 1016.9 |
| 20260505153205 | 22 | 126 | 8.0 | 14.5 | 0.00 | 0.00 | 0.00 | 80 | 1016.5 |
| 20260505152704 | 22 | 106 | 4.8 | 11.3 | 0.00 | 0.00 | 0.00 | 81 | 1016.7 |
| 20260505152204 | 22 | 84 | 1.6 | 12.9 | 0.00 | 0.00 | 0.00 | 81 | 1016.5 |
| 20260505151705 | 22 | 169 | 3.2 | 12.9 | 0.00 | 0.00 | 0.00 | 81 | 1016.5 |
| 20260505140204 | 22 | 116 | 4.8 | 14.5 | 0.00 | 0.00 | 0.00 | 78 | 1015.9 |
| 20260505130205 | 23 | 128 | 4.8 | 20.9 | 0.00 | 0.00 | 0.00 | 72 | 1015.5 |
| 20260505124704 | 24 | 127 | 6.4 | 14.5 | 0.00 | 0.00 | 0.00 | 70 | 1015.5 |
| 20260505123704 | 24 | 141 | 8.0 | 22.5 | 0.00 | 0.00 | 0.00 | 70 | 1015.2 |
| 20260505123204 | 25 | 142 | 8.0 | 22.5 | 0.00 | 0.00 | 0.00 | 67 | 1015.2 |
| 20260505122704 | 25 | 91 | 8.0 | 12.9 | 0.00 | 0.00 | 0.00 | 68 | 1015.2 |
| 20260505122205 | 25 | 130 | 4.8 | 11.3 | 0.00 | 0.00 | 0.00 | 67 | 1015.0 |
| 20260505121705 | 25 | 114 | 8.0 | 16.1 | 0.00 | 0.00 | 0.00 | 65 | 1015.2 |
| 20260505121205 | 25 | 306 | 8.0 | 14.5 | 0.00 | 0.00 | 0.00 | 64 | 1014.9 |
| 20260505120704 | 25 | 270 | 3.2 | 16.1 | 0.00 | 0.00 | 0.00 | 65 | 1015.2 |
| 20260505120204 | 25 | 104 | 9.7 | 16.1 | 0.00 | 0.00 | 0.00 | 65 | 1015.1 |
| 20260505115705 | 25 | 100 | 6.4 | 14.5 | 0.00 | 0.00 | 0.00 | 65 | 1015.1 |
| 20260505115203 | 25 | 49 | 4.8 | 16.1 | 0.00 | 0.00 | 0.00 | 64 | 1015.2 |
| 20260505114704 | 25 | 114 | 8.0 | 16.1 | 0.00 | 0.00 | 0.00 | 63 | 1015.1 |
| 20260505114204 | 25 | 131 | 8.0 | 14.5 | 0.00 | 0.00 | 0.00 | 63 | 1015.0 |
| 20260505113704 | 25 | 238 | 4.8 | 19.3 | 0.00 | 0.00 | 0.00 | 62 | 1014.9 |
| 20260505112704 | 26 | 133 | 6.4 | 14.5 | 0.00 | 0.00 | 0.00 | 62 | 1014.6 |
| 20260505112204 | 25 | 18 | 4.8 | 16.1 | 0.00 | 0.00 | 0.00 | 61 | 1014.9 |
| 20260505111705 | 26 | 143 | 6.4 | 16.1 | 0.00 | 0.00 | 0.00 | 60 | 1014.9 |
| 20260505111204 | 26 | 112 | 6.4 | 19.3 | 0.00 | 0.00 | 0.00 | 59 | 1014.7 |
| 20260505110704 | 26 | 57 | 6.4 | 19.3 | 0.00 | 0.00 | 0.00 | 57 | 1014.5 |
| 20260505102205 | 27 | 59 | 3.2 | 16.1 | 0.00 | 0.00 | 0.00 | 58 | 1014.6 |
| 20260505101704 | 26 | 316 | 8.0 | 16.1 | 0.00 | 0.00 | 0.00 | 57 | 1014.6 |
| 20260505101204 | 26 | 130 | 8.0 | 14.5 | 0.00 | 0.00 | 0.00 | 58 | 1014.9 |
| 20260505100704 | 27 | 115 | 8.0 | 19.3 | 0.00 | 0.00 | 0.00 | 58 | 1014.9 |
| 20260505100204 | 26 | 139 | 4.8 | 19.3 | 0.00 | 0.00 | 0.00 | 59 | 1014.8 |
| 20260505095706 | 27 | 122 | 4.8 | 16.1 | 0.00 | 0.00 | 0.00 | 58 | 1014.7 |
| 20260505095205 | 27 | 125 | 4.8 | 16.1 | 0.00 | 0.00 | 0.00 | 60 | 1014.8 |
| 20260505094704 | 27 | 90 | 6.4 | 14.5 | 0.00 | 0.00 | 0.00 | 60 | 1014.7 |
| 20260505093704 | 27 | 141 | 6.4 | 12.9 | 0.00 | 0.00 | 0.00 | 60 | 1014.9 |
| 20260505093206 | 27 | 122 | 4.8 | 14.5 | 0.00 | 0.00 | 0.00 | 59 | 1015.1 |
| 20260505092704 | 27 | 155 | 9.7 | 14.5 | 0.00 | 0.00 | 0.00 | 59 | 1015.0 |
| 20260505092204 | 27 | 98 | 4.8 | 14.5 | 0.00 | 0.00 | 0.00 | 61 | 1015.1 |
| 20260505091204 | 26 | 185 | 6.4 | 16.1 | 0.00 | 0.00 | 0.00 | 60 | 1015.2 |
| 20260505090704 | 26 | 290 | 6.4 | 16.1 | 0.00 | 0.00 | 0.00 | 63 | 1014.9 |
| 20260505090204 | 26 | 124 | 8.0 | 20.9 | 0.00 | 0.00 | 0.00 | 63 | 1015.2 |
| 20260505085704 | 27 | 237 | 8.0 | 11.3 | 0.00 | 0.00 | 0.00 | 61 | 1015.2 |
| 20260505085205 | 27 | 329 | 3.2 | 24.1 | 0.00 | 0.00 | 0.00 | 62 | 1015.2 |
| 20260505084704 | 27 | 179 | 8.0 | 19.3 | 0.00 | 0.00 | 0.00 | 61 | 1015.2 |
| 20260505084204 | 27 | 19 | 4.8 | 11.3 | 0.00 | 0.00 | 0.00 | 62 | 1015.4 |
| 20260505083704 | 27 | 129 | 6.4 | 19.3 | 0.00 | 0.00 | 0.00 | 61 | 1015.3 |
| 20260505083204 | 27 | 359 | 4.8 | 19.3 | 0.00 | 0.00 | 0.00 | 60 | 1015.5 |
| 20260505082704 | 27 | 212 | 6.4 | 19.3 | 0.00 | 0.00 | 0.00 | 60 | 1015.6 |
| 20260505082204 | 27 | 103 | 4.8 | 14.5 | 0.00 | 0.00 | 0.00 | 60 | 1015.6 |
| 20260505081704 | 27 | 102 | 6.4 | 14.5 | 0.00 | 0.00 | 0.00 | 61 | 1015.8 |
| 20260505081204 | 26 | 237 | 4.8 | 19.3 | 0.00 | 0.00 | 0.00 | 61 | 1015.9 |
| 20260505080705 | 26 | 131 | 6.4 | 14.5 | 0.00 | 0.00 | 0.00 | 62 | 1015.9 |
| 20260505080205 | 26 | 301 | 11.3 | 14.5 | 0.00 | 0.00 | 0.00 | 62 | 1015.9 |
| 20260505075704 | 26 | 99 | 6.4 | 20.9 | 0.00 | 0.00 | 0.00 | 61 | 1015.9 |
| 20260505075204 | 27 | 241 | 6.4 | 12.9 | 0.00 | 0.00 | 0.00 | 60 | 1015.9 |
| 20260505074704 | 26 | 36 | 4.8 | 19.3 | 0.00 | 0.00 | 0.00 | 61 | 1015.9 |
| 20260505074205 | 26 | 86 | 8.0 | 20.9 | 0.00 | 0.00 | 0.00 | 62 | 1015.9 |
| 20260505073204 | 26 | 135 | 12.9 | 24.1 | 0.00 | 0.00 | 0.00 | 63 | 1015.9 |
| 20260505072705 | 26 | 76 | 8.0 | 22.5 | 0.00 | 0.00 | 0.00 | 64 | 1015.9 |
| 20260505072204 | 26 | 105 | 11.3 | 22.5 | 0.00 | 0.00 | 0.00 | 63 | 1016.2 |
| 20260505071704 | 26 | 114 | 12.9 | 16.1 | 0.00 | 0.00 | 0.00 | 63 | 1016.2 |
| 20260505071204 | 26 | 103 | 8.0 | 20.9 | 0.00 | 0.00 | 0.00 | 63 | 1016.3 |
| 20260505070204 | 26 | 85 | 6.4 | 19.3 | 0.00 | 0.00 | 0.00 | 64 | 1016.4 |
| 20260505065704 | 26 | 133 | 8.0 | 16.1 | 0.00 | 0.00 | 0.00 | 64 | 1016.6 |
| 20260505065204 | 27 | 118 | 8.0 | 16.1 | 0.00 | 0.00 | 0.00 | 64 | 1016.4 |
| 20260505064705 | 26 | 140 | 4.8 | 14.5 | 0.00 | 0.00 | 0.00 | 65 | 1016.6 |
| 20260505064204 | 26 | 332 | 3.2 | 24.1 | 0.00 | 0.00 | 0.00 | 66 | 1016.6 |
| 20260505063704 | 26 | 107 | 8.0 | 14.5 | 0.00 | 0.00 | 0.00 | 67 | 1016.9 |
| 20260505063204 | 25 | 137 | 8.0 | 22.5 | 0.00 | 0.00 | 0.00 | 67 | 1016.8 |
| 20260505062204 | 26 | 140 | 12.9 | 20.9 | 0.00 | 0.00 | 0.00 | 64 | 1016.7 |
| 20260505061704 | 26 | 39 | 6.4 | 16.1 | 0.00 | 0.00 | 0.00 | 64 | 1016.8 |
| 20260505061204 | 26 | 110 | 4.8 | 12.9 | 0.00 | 0.00 | 0.00 | 64 | 1016.9 |
| 20260505060705 | 26 | 206 | 3.2 | 14.5 | 0.00 | 0.00 | 0.00 | 66 | 1016.9 |
| 20260505060205 | 26 | 132 | 8.0 | 16.1 | 0.00 | 0.00 | 0.00 | 65 | 1017.2 |
| 20260505055204 | 25 | 134 | 11.3 | 24.1 | 0.00 | 0.00 | 0.00 | 65 | 1017.3 |
| 20260505054205 | 26 | 68 | 4.8 | 16.1 | 0.00 | 0.00 | 0.00 | 64 | 1016.9 |
| 20260505053705 | 26 | 158 | 6.4 | 20.9 | 0.00 | 0.00 | 0.00 | 67 | 1017.3 |
| 20260505053204 | 25 | 133 | 8.0 | 20.9 | 0.00 | 0.00 | 0.00 | 66 | 1017.3 |
| 20260505052204 | 25 | 266 | 1.6 | 19.3 | 0.00 | 0.00 | 0.00 | 68 | 1017.3 |
| 20260505051704 | 25 | 130 | 4.8 | 19.3 | 0.00 | 0.00 | 0.00 | 68 | 1017.3 |
| 20260505051204 | 25 | 125 | 3.2 | 12.9 | 0.00 | 0.00 | 0.00 | 70 | 1017.4 |
| 20260505050704 | 25 | 103 | 4.8 | 16.1 | 0.00 | 0.00 | 0.00 | 70 | 1017.3 |
| 20260505050204 | 25 | 127 | 3.2 | 16.1 | 0.00 | 0.00 | 0.00 | 70 | 1017.3 |
| 20260505041704 | 25 | 155 | 3.2 | 8.0 | 0.00 | 0.00 | 0.00 | 68 | 1017.2 |
| 20260505041204 | 25 | 153 | 3.2 | 8.0 | 0.00 | 0.00 | 0.00 | 68 | 1017.0 |
| 20260505040704 | 25 | 180 | 3.2 | 8.0 | 0.00 | 0.00 | 0.00 | 69 | 1016.9 |
| 20260505040206 | 25 | 110 | 3.2 | 8.0 | 0.00 | 0.00 | 0.00 | 71 | 1016.8 |
| 20260505035705 | 25 | 128 | 3.2 | 8.0 | 0.00 | 0.00 | 0.00 | 70 | 1016.9 |
| 20260505034706 | 24 | 150 | 1.6 | 4.8 | 0.00 | 0.00 | 0.00 | 71 | 1016.6 |
| 20260505034204 | 25 | 193 | 4.8 | 4.8 | 0.00 | 0.00 | 0.00 | 69 | 1016.6 |
| 20260505033704 | 24 | 195 | 1.6 | 4.8 | 0.00 | 0.00 | 0.00 | 71 | 1016.7 |
| 20260505032706 | 23 | 166 | 1.6 | 3.2 | 0.00 | 0.00 | 0.00 | 75 | 1016.7 |
| 20260505032204 | 22 | 98 | 3.2 | 4.8 | 0.00 | 0.00 | 0.00 | 77 | 1016.7 |
| 20260505031704 | 22 | 5 | 1.6 | 8.0 | 0.00 | 0.00 | 0.00 | 80 | 1016.9 |
| 20260505031204 | 21 | 76 | 1.6 | 8.0 | 0.00 | 0.00 | 0.00 | 82 | 1016.9 |
| 20260505030704 | 21 | 330 | 1.6 | 3.2 | 0.00 | 0.00 | 0.00 | 84 | 1016.9 |
| 20260505030204 | 20 | 124 | 3.2 | 3.2 | 0.00 | 0.00 | 0.00 | 86 | 1016.9 |
| 20260505025205 | 20 | 345 | 1.6 | 4.8 | 0.00 | 0.00 | 0.00 | 88 | 1017.0 |
| 20260505024704 | 20 | 271 | 0.0 | 3.2 | 0.00 | 0.00 | 0.00 | 88 | 1017.0 |
| 20260505023705 | 20 | 317 | 3.2 | 4.8 | 0.00 | 0.00 | 0.00 | 89 | 1017.1 |
| 20260505022705 | 19 | 309 | 3.2 | 8.0 | 0.00 | 0.00 | 0.00 | 91 | 1016.9 |
| 20260505022205 | 19 | 129 | 3.2 | 4.8 | 0.00 | 0.00 | 0.00 | 92 | 1016.9 |
| 20260505021204 | 19 | 173 | 1.6 | 4.8 | 0.00 | 0.00 | 0.00 | 92 | 1016.6 |
| 20260505020705 | 19 | 247 | 1.6 | 4.8 | 0.00 | 0.00 | 0.00 | 92 | 1016.6 |
| 20260505020203 | 19 | 303 | 1.6 | 4.8 | 0.00 | 0.00 | 0.00 | 93 | 1016.7 |
| 20260505014706 | 18 | 65 | 1.6 | 4.8 | 0.00 | 0.00 | 0.00 | 95 | 1016.6 |
| 20260505014204 | 18 | 74 | 1.6 | 4.8 | 0.00 | 0.00 | 0.00 | 95 | 1016.6 |
| 20260505013704 | 18 | 152 | 1.6 | 4.8 | 0.00 | 0.00 | 0.00 | 95 | 1016.6 |
| 20260505013204 | 18 | 138 | 1.6 | 4.8 | 0.00 | 0.00 | 0.00 | 95 | 1016.6 |
| 20260505012704 | 18 | 225 | 1.6 | 4.8 | 0.00 | 0.00 | 0.00 | 95 | 1016.8 |
| 20260505012204 | 18 | 144 | 1.6 | 4.8 | 0.00 | 0.00 | 0.00 | 95 | 1016.6 |
| 20260505011704 | 18 | 145 | 3.2 | 4.8 | 0.00 | 0.00 | 0.00 | 95 | 1016.5 |
| 20260505011204 | 18 | 146 | 1.6 | 4.8 | 0.00 | 0.00 | 0.00 | 95 | 1016.6 |
| 20260505010704 | 18 | 142 | 1.6 | 4.8 | 0.00 | 0.00 | 0.00 | 95 | 1016.6 |
| 20260505010204 | 17 | 117 | 1.6 | 4.8 | 0.00 | 0.00 | 0.00 | 95 | 1016.6 |
| 20260505004704 | 18 | 109 | 1.6 | 4.8 | 0.00 | 0.00 | 0.00 | 94 | 1016.8 |
| 20260505004204 | 18 | 117 | 1.6 | 8.0 | 0.00 | 0.00 | 0.00 | 94 | 1016.6 |
| 20260505003705 | 18 | 136 | 1.6 | 8.0 | 0.00 | 0.00 | 0.00 | 94 | 1016.9 |
| 20260505003205 | 18 | 100 | 1.6 | 4.8 | 0.00 | 0.00 | 0.00 | 94 | 1016.6 |
| 20260505002204 | 18 | 134 | 1.6 | 8.0 | 0.00 | 0.00 | 0.00 | 94 | 1016.6 |
| 20260505001204 | 18 | 116 | 3.2 | 4.8 | 0.00 | 0.00 | 0.00 | 93 | 1016.6 |
| 20260505000704 | 18 | 80 | 1.6 | 4.8 | 0.00 | 0.00 | 0.00 | 93 | 1016.8 |
| 20260504235705 | 18 | 212 | 3.2 | 4.8 | 0.00 | 0.00 | 0.00 | 93 | 1016.6 |
| 20260504235204 | 18 | 225 | 0.0 | 4.8 | 0.00 | 0.00 | 0.00 | 93 | 1016.6 |
| 20260504234204 | 18 | 149 | 3.2 | 4.8 | 0.00 | 0.00 | 0.00 | 92 | 1016.6 |
| 20260504233704 | 18 | 74 | 3.2 | 4.8 | 0.00 | 0.00 | 0.00 | 91 | 1016.6 |
| 20260504233204 | 18 | 184 | 1.6 | 8.0 | 0.00 | 0.00 | 0.00 | 91 | 1016.6 |
| 20260504232705 | 18 | 162 | 1.6 | 11.3 | 0.00 | 0.00 | 0.00 | 91 | 1016.6 |
| 20260504232204 | 18 | 120 | 3.2 | 4.8 | 0.00 | 0.00 | 0.00 | 90 | 1016.9 |
| 20260504231704 | 18 | 124 | 1.6 | 8.0 | 0.00 | 0.00 | 0.00 | 90 | 1016.6 |
| 20260504231204 | 18 | 132 | 4.8 | 8.0 | 0.00 | 0.00 | 0.00 | 90 | 1016.9 |
| 20260504230704 | 18 | 352 | 3.2 | 8.0 | 0.00 | 0.00 | 0.00 | 90 | 1016.8 |
| 20260504230204 | 18 | 119 | 3.2 | 8.0 | 0.00 | 0.00 | 0.00 | 89 | 1016.8 |
| 20260504225704 | 18 | 130 | 3.2 | 8.0 | 0.00 | 0.00 | 0.00 | 89 | 1016.9 |
| 20260504225204 | 19 | 161 | 3.2 | 11.3 | 0.00 | 0.00 | 0.00 | 89 | 1016.9 |
| 20260504224704 | 19 | 134 | 6.4 | 11.3 | 0.00 | 0.00 | 0.00 | 90 | 1016.8 |
| 20260504224204 | 19 | 194 | 1.6 | 4.8 | 0.00 | 0.00 | 0.00 | 89 | 1016.9 |
| 20260504223704 | 19 | 215 | 4.8 | 12.9 | 0.00 | 0.00 | 0.00 | 89 | 1016.9 |
| 20260504223204 | 19 | 128 | 4.8 | 12.9 | 0.00 | 0.00 | 0.00 | 89 | 1016.8 |
| 20260504222205 | 18 | 14 | 1.6 | 4.8 | 0.00 | 0.00 | 0.00 | 89 | 1016.9 |
| 20260504221704 | 18 | 139 | 3.2 | 8.0 | 0.00 | 0.00 | 0.00 | 89 | 1017.3 |
| 20260504221204 | 18 | 127 | 4.8 | 8.0 | 0.00 | 0.00 | 0.00 | 89 | 1017.0 |
| 20260504220704 | 18 | 158 | 3.2 | 9.7 | 0.00 | 0.00 | 0.00 | 88 | 1017.3 |
| 20260504220204 | 18 | 143 | 4.8 | 8.0 | 0.00 | 0.00 | 0.00 | 88 | 1017.1 |
| 20260504215704 | 19 | 109 | 3.2 | 8.0 | 0.00 | 0.00 | 0.00 | 87 | 1017.2 |
| 20260504214705 | 19 | 324 | 3.2 | 4.8 | 0.00 | 0.00 | 0.00 | 86 | 1017.3 |
| 20260504214204 | 19 | 72 | 0.0 | 1.6 | 0.00 | 0.00 | 0.00 | 85 | 1017.3 |
| 20260504213704 | 19 | 17 | 0.0 | 3.2 | 0.00 | 0.00 | 0.00 | 85 | 1017.3 |
| 20260504213205 | 19 | 348 | 1.6 | 3.2 | 0.00 | 0.00 | 0.00 | 85 | 1017.3 |
| 20260504212706 | 20 | 53 | 0.0 | 1.6 | 0.00 | 0.00 | 0.00 | 85 | 1017.3 |
| 20260504212204 | 20 | 60 | 0.0 | 3.2 | 0.00 | 0.00 | 0.00 | 85 | 1017.3 |
| 20260504211705 | 20 | 135 | 1.6 | 3.2 | 0.00 | 0.00 | 0.00 | 84 | 1017.3 |
| 20260504211204 | 20 | 115 | 0.0 | 3.2 | 0.00 | 0.00 | 0.00 | 84 | 1017.3 |
| 20260504210706 | 20 | 116 | 0.0 | 3.2 | 0.00 | 0.00 | 0.00 | 84 | 1017.3 |
| 20260504210204 | 20 | 346 | 0.0 | 3.2 | 0.00 | 0.00 | 0.00 | 84 | 1017.3 |
| 20260504205704 | 20 | 185 | 0.0 | 4.8 | 0.00 | 0.00 | 0.00 | 83 | 1017.6 |
| 20260504205205 | 20 | 309 | 0.0 | 4.8 | 0.00 | 0.00 | 0.00 | 82 | 1017.3 |
| 20260504204704 | 20 | 286 | 0.0 | 3.2 | 0.00 | 0.00 | 0.00 | 82 | 1017.3 |
| 20260504204204 | 20 | 331 | 1.6 | 4.8 | 0.00 | 0.00 | 0.00 | 82 | 1017.3 |
| 20260504203704 | 20 | 326 | 0.0 | 3.2 | 0.00 | 0.00 | 0.00 | 82 | 1017.5 |
| 20260504202704 | 20 | 287 | 3.2 | 4.8 | 0.00 | 0.00 | 0.00 | 83 | 1017.4 |
| 20260504202204 | 20 | 293 | 0.0 | 4.8 | 0.00 | 0.00 | 0.00 | 83 | 1017.3 |
| 20260504201205 | 20 | 324 | 0.0 | 3.2 | 0.00 | 0.00 | 0.00 | 82 | 1017.7 |
| 20260504200204 | 20 | 106 | 0.0 | 3.2 | 0.00 | 0.00 | 0.00 | 81 | 1017.6 |
| 20260504195704 | 21 | 147 | 3.2 | 3.2 | 0.00 | 0.00 | 0.00 | 81 | 1017.8 |
| 20260504194704 | 21 | 93 | 1.6 | 4.8 | 0.00 | 0.00 | 0.00 | 80 | 1017.6 |
| 20260504194204 | 21 | 65 | 1.6 | 4.8 | 0.00 | 0.00 | 0.00 | 80 | 1017.6 |
| 20260504192205 | 21 | 143 | 1.6 | 4.8 | 0.00 | 0.00 | 0.00 | 79 | 1017.6 |
| 20260504191704 | 21 | 347 | 1.6 | 4.8 | 0.00 | 0.00 | 0.00 | 79 | 1017.6 |
| 20260504191204 | 21 | 180 | 1.6 | 8.0 | 0.00 | 0.00 | 0.00 | 78 | 1017.6 |
| 20260504190704 | 21 | 327 | 3.2 | 9.7 | 0.00 | 0.00 | 0.00 | 78 | 1017.6 |
| 20260504190204 | 21 | 317 | 3.2 | 9.7 | 0.00 | 0.00 | 0.00 | 79 | 1017.6 |
| 20260504185704 | 21 | 346 | 1.6 | 4.8 | 0.00 | 0.00 | 0.00 | 79 | 1017.6 |
| 20260504185204 | 21 | 306 | 3.2 | 8.0 | 0.00 | 0.00 | 0.00 | 79 | 1017.6 |
| 20260504184704 | 21 | 343 | 3.2 | 9.7 | 0.00 | 0.00 | 0.00 | 78 | 1017.6 |
| 20260504184206 | 21 | 310 | 4.8 | 9.7 | 0.00 | 0.00 | 0.00 | 78 | 1017.6 |
| 20260504183704 | 21 | 239 | 3.2 | 4.8 | 0.00 | 0.00 | 0.00 | 79 | 1017.6 |
| 20260504183204 | 21 | 28 | 1.6 | 4.8 | 0.00 | 0.00 | 0.00 | 79 | 1017.7 |
| 20260504182705 | 21 | 185 | 3.2 | 4.8 | 0.00 | 0.00 | 0.00 | 79 | 1017.6 |
| 20260504182204 | 21 | 129 | 3.2 | 4.8 | 0.00 | 0.00 | 0.00 | 79 | 1017.6 |
| 20260504181705 | 21 | 130 | 1.6 | 4.8 | 0.00 | 0.00 | 0.00 | 79 | 1017.6 |
| 20260504180704 | 21 | 341 | 1.6 | 4.8 | 0.00 | 0.00 | 0.00 | 80 | 1017.6 |
| 20260504180204 | 21 | 328 | 3.2 | 4.8 | 0.00 | 0.00 | 0.00 | 80 | 1017.6 |
| 20260504175703 | 21 | 156 | 1.6 | 4.8 | 0.00 | 0.00 | 0.00 | 80 | 1017.6 |
| 20260504175204 | 21 | 115 | 1.6 | 4.8 | 0.00 | 0.00 | 0.00 | 81 | 1017.6 |
| 20260504174705 | 21 | 128 | 1.6 | 4.8 | 0.00 | 0.00 | 0.00 | 81 | 1017.6 |
| 20260504174205 | 21 | 346 | 1.6 | 4.8 | 0.00 | 0.00 | 0.00 | 81 | 1017.6 |
| 20260504173704 | 21 | 263 | 1.6 | 3.2 | 0.00 | 0.00 | 0.00 | 80 | 1017.8 |
| 20260504173204 | 21 | 2 | 0.0 | 3.2 | 0.00 | 0.00 | 0.00 | 80 | 1017.8 |
| 20260504172704 | 21 | 317 | 0.0 | 3.2 | 0.00 | 0.00 | 0.00 | 80 | 1017.9 |
| 20260504172204 | 21 | 17 | 1.6 | 3.2 | 0.00 | 0.00 | 0.00 | 79 | 1017.9 |
| 20260504171204 | 21 | 58 | 3.2 | 4.8 | 0.00 | 0.00 | 0.00 | 78 | 1017.9 |
| 20260504170705 | 21 | 289 | 3.2 | 11.3 | 0.00 | 0.00 | 0.00 | 78 | 1017.6 |
| 20260504170204 | 21 | 202 | 1.6 | 9.7 | 0.00 | 0.00 | 0.00 | 78 | 1017.9 |